Location: Sydney
(46.1500°N, 60.1670°W)
Time: 18:55:17
(UTC-03:00)

Iridium 90 - Visible Passes

Search period start: 30 September 2014 00:00
Search period end: 10 October 2014 00:00
Orbit: 746 x 751 km, 86.4° (Epoch: 30 September)

Date Brightness Start Highest point End Pass type
(mag) Time Alt. Az. Time Alt. Az. Time Alt. Az.
30 Sep 7.9 02:44:31 18° NE 02:44:31 18° NE 02:46:05 10° NNE visible
30 Sep 7.1 04:24:24 22° NNW 04:24:24 22° NNW 04:26:25 10° NNW visible
01 Oct 7.3 03:42:45 23° N 03:42:45 23° N 03:44:38 10° N visible
02 Oct 7.9 03:01:05 18° NNE 03:01:05 18° NNE 03:02:26 10° NNE visible
02 Oct 7.6 04:40:58 13° NNW 04:40:58 13° NNW 04:41:47 10° NNW visible
03 Oct 8.4 02:19:24 12° NNE 02:19:24 12° NNE 02:19:46 10° NNE visible
03 Oct 7.6 03:59:17 16° NNW 03:59:17 16° NNW 04:00:25 10° N visible
04 Oct 7.9 03:17:35 16° N 03:17:35 16° N 03:18:31 10° N visible
05 Oct 8.3 02:35:52 12° NNE 02:35:52 12° NNE 02:36:13 10° NNE visible
05 Oct 7.9 04:15:44 11° NNW 04:15:44 11° NNW 04:15:56 10° NNW visible
06 Oct 8.0 03:34:00 12° N 03:34:00 12° N 03:34:23 10° N visible
07 Oct 8.3 02:52:16 11° N 02:52:16 11° N 02:52:23 10° N visible
